SCP
0 0 0 0 0 0 0 0 0 0 0 0 0 0 0 0 0 0 0 0 0 0 0 0 0 0 0 0 0 0 0 0 0 0 0 0 0 0 0 0 0 0 0 0 0 0 0 0 0 0 0 0 0 0
0 0 0 0 0 0 0 0 0 0 0 0 0 0 0 0 0 0 0 0 0 0 0 0 0 0 0 0 0 0 0 0 0 0 0 0 0 0 0 0 0 0 0 0 0 0 0 0 0 0 0 0 0 0
0 0 0 0 0 0 0 0 0 0 0 0 0 0 0 0 0 0 0 0 0 0 0 0 0 0 0 0 0 0 0 0 0 0 0 0 0 0 0 0 0 0 0 0 0 0 0 0 0 0 0 0 0 0
0 0 0 0 0 0 0 0 0 0 0 0 0 0 0 0 0 0 0 0 0 0 0 0 0 0 0 0 0 0 0 0 0 0 0 0 0 0 0 0 -0 0 -0 0 0 0 0 0 0 0 0 0 0 0
0 0 0 0 0 0 0 0 0 0 0 0 0 0 0 0 0 0 0 0 0 0 0 0 -0 0 0 0 0 0 0 0 0 0 0 0 0 0 0 0 0 0 0 0 0 0 0 0 0 0 0 0 0 0
0 0 0 0 0 0 0 0 0 0 0 0 0 0 0 0 0 0 0 0 0 0 0 0 0 -0 0 0 0 0 0 0 0 0 -0 0 0 0 0 0 0 0 0 0 0 0 0 0 0 0 0 0 0 0
0 0 0 0 0 0 0 0 0 0 0 0 0 0 0 0 0 0 0 0 0 0 0 0 0 0 0 0 0 0 0 0 0 0 0 0 0 0 0 0 0 0 0 0 0 0 0 0 0 0 0 0 0 0
0 0 0 0 0 0 0 0 0 0 0 0 0 0 0 0 0 0 -0 0 0 0 0 0 0 -0 0 0 0 0 0 0 0 0 0 0 0 0 0 0 0 -0 0 0 0 0 0 0 0 0 0 0 0 0
0 0 0 0 0 0 0 0 0 0 0 0 0 0 0 0 0 0 0 0 0 0 0 0 0 0 0 0 0 0 0 0 0 0 0 0 0 0 0 0 0 0 0 0 0 0 0 0 0 0 0 0 0 0
0 0 0 0 0 0 0 0 0 0 0 0 0 0 0 0 0 0 0 0 0 0 0 0 -0 0 0 0 0 0 0 -0 0 -0 -0 0 0 0 0 0 0 0 0 0 0 0 0 0 0 0 0 0 0 0
0 0 0 0 0 0 0 0 0 0 0 0 0 0 0 0 0 0 0 0 0 0 0 0 0 -0 -0 0 0 -0 0 -0 0 0 0 0 0 0 0 0 0 0 0 0 0 0 0 0 0 0 0 0 0 0
0 0 0 0 0 0 0 0 0 0 0 0 0 0 0 0 0 0 0 0 0 0 0 0 0 -0 -0 0 0 0 0 -0 0 0 0 0 0 0 0 0 0 0 0 0 0 0 0 0 0 0 0 0 0 0
0 0 0 0 0 0 0 0 0 0 0 0 0 0 0 0 0 0 0 0 0 0 0 0 0 0 0 0 0 0 0 -0 0 0 0 0 0 0 0 0 0 0 0 0 0 0 0 0 0 0 0 0 0 0
0 0 0 0 0 0 0 0 0 0 0 0 0 0 0 0 0 0 0 0 -0 0 0 0 0 0 0 0 0 0 0 0 0 0 0 0 0 -0 0 0 0 0 0 0 0 0 0 0 0 0 0 0 0 0
0 0 0 0 0 0 0 0 0 0 0 0 0 0 0 0 0 0 0 -0 0 0 0 0 0 0 0 0 0 0 0 0 0 0 -0 -0 0 0 0 0 0 0 0 0 0 0 0 0 0 0 0 0 0 0
0 0 0 0 0 0 0 0 0 0 0 0 0 0 0 0 0 0 0 0 -0 0 0 0 0 0 0 0 0 0 0 0 0 -0 -0 -0 0 0 0 0 0 0 0 0 0 0 0 0 0 0 0 0 0 0
0 0 0 0 0 0 0 0 0 0 0 0 0 0 0 0 0 0 0 -0 0 0 0 0 0 0 0 0 0 0 0 -0 -0 -0 -0 0 0 0 0 0 0 0 0 0 0 0 0 0 0 0 -0 0 0 0
0 0 0 0 0 0 0 0 0 0 0 0 0 0 0 0 0 0 0 0 0 0 0 0 0 0 0 -0 0 0 0 0 0 -0 0 0 0 0 0 0 0 0 0 0 0 0 0 0 0 0 0 0 0 0
0 0 0 0 0 0 0 0 0 0 0 0 0 0 0 0 0 0 0 0 0 0 0 0 0 0 0 -0 -0 -0 -0 -0 0 -0 -0 0 0 0 0 0 0 0 0 0 0 0 0 0 0 0 0 0 0 0
-0 -0 -0 0 0 0 0 0 0 0 0 0 0 0 0 0 0 0 0 0 0 0 0 -0 -0 -0 -0 -0 -0 -0 0 0 0 0 0 0 0 0 0 0 0 0 0 0 0 0 0 -0 -0 0 0 0 0 0
-0 -0 -0 0 0 0 0 0 -0 -0 -0 0 -0 0 0 0 0 0 0 -0 0 0 0 0 -0 -0 -0 -0 0 0 0 0 0 0 -0 -0 0 0 0 0 0 0 0 0 0 0 0 0 -0 -0 -0 0 0 0
-0 -0 -0 0 0 0 0 0 0 0 0 0 0 0 0 0 0 0 0 0 0 0 0 0 -0 -0 -0 0 0 0 0 0 -0 -0 -0 -0 -0 0 0 0 0 0 0 0 0 0 0 0 0 0 0 -0 0 0
-0 0 0 0 0 0 0 0 0 0 0 0 -0 0 0 0 0 0 0 0 0 0 -0 -0 -0 -0 0 0 0 0 0 0 -0 -0 0 0 -0 0 0 0 0 0 0 0 0 0 0 0 0 0 0 0 0 0
-0 0 0 0 0 0 0 0 0 0 0 0 0 0 0 0 0 0 0 0 -0 -0 0 0 0 0 0 0 0 0 0 0 0 0 0 -0 -0 0 0 0 0 0 0 0 0 0 0 0 0 0 0 0 0 0
-0 0 0 0 0 0 0 0 0 0 0 0 0 0 0 0 0 0 -0 0 0 0 0 0 0 0 0 0 0 0 0 0 0 0 0 -0 0 -0 0 0 0 0 0 0 0 0 0 0 0 0 0 0 0 0
0 0 0 0 0 0 0 0 0 0 0 0 0 0 0 0 0 0 0 0 0 0 0 0 0 0 0 0 0 0 0 0 0 0 0 -0 0 0 0 0 0 0 0 0 0 0 0 0 0 0 0 0 0 0
0 0 0 0 0 0 0 0 0 0 0 0 0 0 0 0 0 0 0 0 0 0 0 -0 0 0 0 0 0 -0 0 0 0 0 0 0 0 0 0 -0 -0 0 0 0 0 0 0 0 0 0 0 0 0 0
0 0 0 0 0 0 0 0 0 0 0 0 0 0 0 0 0 0 -0 -0 0 0 0 0 0 0 0 0 0 0 0 0 0 -0 -0 0 0 0 0 0 -0 -0 0 0 0 0 0 0 0 0 0 0 -0 -0
0 0 0 0 0 0 0 0 0 0 0 0 0 0 0 -0 0 0 -0 0 0 0 0 0 0 0 0 0 -0 0 0 0 0 -0 -0 -0 -0 -0 -0 -0 -0 0 -0 0 0 0 0 0 0 0 0 0 0 -0
0 0 0 0 0 0 0 0 0 0 0 0 0 0 0 -0 0 -0 0 0 0 0 0 0 0 0 0 -0 -0 -0 -0 0 0 0 -0 -0 -0 -0 -0 -0 -0 -0 -0 -0 0 -0 -0 -0 -0 -0 -0 -0 -0 -0
0 0 0 0 0 0 0 0 0 0 0 0 0 0 0 -0 0 0 0 0 0 0 0 0 -0 -0 0 0 -0 -0 -0 0 0 0 0 0 0 0 -0 -0 -0 -0 -0 -0 -0 0 -0 -0 -0 -0 -0 -0 -0 -0
0 0 0 0 0 0 0 0 0 0 0 0 0 0 0 0 0 0 0 0 0 0 0 0 0 -0 -0 -0 -0 -0 -0 0 0 0 0 0 0 0 0 0 0 0 0 0 -0 -0 -0 -0 -0 -0 -0 -0 -0 -0
0 0 0 0 0 0 0 0 0 0 0 0 0 0 0 -0 0 0 0 0 0 0 0 0 0 0 -0 -0 0 0 0 0 0 0 0 0 0 0 0 0 0 0 0 0 0 0 0 -0 0 0 0 0 0 -0
Wind_Speed_500mb
85 73 61 54 49 46 41 37 32 25 19 19 25 26 23 17 14 11 9 11 8 11 40 20 5 14 13 6 6 8 10 8 8 8 4 4 1 4 6 5 5 8 7 6 3 3 13 10 5 2 8 24 31 39
63 51 44 39 36 32 28 24 17 9 12 19 21 20 17 15 10 10 8 14 9 14 24 43 41 41 38 26 22 5 3 4 4 6 4 4 5 6 2 4 10 2 6 5 11 10 10 2 10 9 26 36 36 41
43 35 30 26 26 24 21 18 12 8 16 20 19 14 12 10 10 12 14 9 12 17 37 12 13 15 14 25 19 17 4 2 6 7 3 1 1 5 1 6 5 9 5 2 5 4 1 25 11 30 35 35 42 48
31 30 28 24 22 20 15 10 11 15 15 14 10 8 7 10 12 15 13 9 11 8 8 12 10 13 9 14 22 21 16 4 6 8 6 2 2 2 5 8 6 15 6 5 8 14 25 8 21 45 48 47 49 53
25 21 17 17 17 17 13 13 12 10 12 9 7 6 5 11 12 12 12 9 18 11 7 23 36 9 25 20 23 21 18 17 3 3 4 4 6 3 6 6 7 12 11 8 9 11 15 34 47 48 49 57 63 61
22 19 17 18 18 13 10 8 8 6 4 6 5 9 13 16 10 5 3 10 19 16 7 6 13 14 8 35 25 24 16 4 11 8 6 7 7 4 3 6 19 27 24 22 13 21 29 43 51 53 48 57 59 58
16 12 9 8 6 9 7 5 6 4 6 6 12 15 21 18 18 14 8 14 20 9 6 12 14 6 14 38 29 27 23 8 10 6 7 6 7 12 4 7 20 17 30 27 27 31 41 41 44 47 40 45 57 47
6 5 5 5 4 6 4 0 3 8 11 17 20 19 15 12 11 13 20 14 14 5 6 3 9 8 22 14 11 19 14 10 8 6 6 9 7 10 9 35 43 39 34 34 42 27 36 39 35 40 43 49 42 48
4 3 4 6 7 8 10 16 16 15 14 10 5 2 4 6 3 2 8 11 21 10 5 5 4 3 3 11 10 10 13 4 7 8 8 9 6 11 18 33 34 32 27 40 50 43 37 39 30 37 45 37 39 42
5 8 12 15 17 18 18 13 9 8 6 12 9 2 2 2 3 4 6 7 9 9 10 10 9 4 6 3 11 13 9 5 4 9 8 6 7 49 49 45 46 43 32 30 28 30 32 21 30 36 30 29 37 38
15 17 17 16 15 13 11 9 8 10 15 8 3 5 1 6 6 6 6 10 10 7 13 14 30 7 4 4 4 12 5 5 4 6 8 5 6 7 10 18 17 15 19 19 15 14 18 20 28 28 28 25 31 29
11 12 13 13 11 10 9 7 12 23 13 8 6 10 5 7 7 6 6 6 8 8 12 11 18 29 10 7 5 4 5 0 8 21 5 5 4 5 10 14 19 14 9 12 13 13 21 28 26 24 26 26 28 27
8 9 9 10 9 9 10 8 13 25 14 10 5 5 8 10 7 10 10 7 4 10 13 18 8 11 6 4 4 4 1 8 5 4 6 5 4 9 10 12 13 12 9 8 9 16 20 21 25 26 25 23 22 22
4 6 9 9 8 7 10 11 12 18 10 7 8 8 8 8 9 10 9 7 19 5 18 30 15 7 6 3 4 4 8 4 3 5 6 4 13 13 7 7 5 12 11 6 9 14 16 19 29 33 32 23 19 21
2 6 7 5 5 3 7 14 13 17 7 7 8 8 10 24 20 19 29 30 29 17 20 16 14 8 4 2 5 4 4 6 8 7 5 6 4 6 6 5 4 7 7 4 7 15 14 21 26 30 30 26 23 27
0 7 8 4 3 3 4 13 12 11 7 8 12 9 22 12 12 17 16 24 28 15 20 14 5 2 4 4 6 9 5 8 7 6 6 1 2 3 4 2 2 2 8 7 5 12 19 26 20 26 19 28 35 37
7 8 5 5 5 2 6 13 10 11 9 9 13 20 39 47 32 30 31 11 16 28 5 8 9 10 6 5 6 8 8 6 10 5 4 3 2 3 5 5 5 3 11 10 6 9 10 14 19 27 34 29 29 34
11 3 12 7 8 12 13 14 7 10 15 27 17 37 29 29 37 40 37 19 16 14 19 9 8 5 5 6 4 4 9 31 21 12 6 6 8 6 3 1 6 5 10 6 11 12 15 14 15 16 26 30 28 26
11 4 1 4 6 8 7 9 13 9 22 28 33 40 36 41 43 38 30 14 10 12 19 14 5 6 7 11 8 9 12 27 26 12 7 6 9 7 4 6 4 10 3 9 11 15 14 15 19 13 10 16 18 14
6 8 6 8 7 5 6 9 16 12 11 10 24 34 25 26 30 28 20 13 23 14 7 6 9 19 12 10 13 23 13 24 23 11 13 12 9 12 13 5 3 8 18 17 17 14 14 21 23 25 15 14 18 20
1 3 5 4 3 11 10 8 12 14 16 12 23 23 19 19 24 35 40 31 25 9 9 18 18 13 14 17 21 21 30 12 8 9 20 18 16 9 9 6 21 15 15 14 13 17 17 13 17 24 27 26 21 20
8 3 3 3 5 7 13 15 13 13 16 26 36 21 12 8 15 21 30 27 19 28 20 19 17 16 19 14 19 21 13 9 5 2 11 18 19 19 9 16 19 18 19 17 15 12 15 16 17 23 23 24 23 26
8 4 4 7 8 9 16 12 10 6 5 14 20 6 7 9 10 13 11 13 10 14 15 14 13 9 8 4 12 19 10 7 5 8 24 21 20 12 13 22 18 19 17 13 10 12 17 19 18 16 17 18 17 18
3 4 5 5 12 10 11 9 13 10 9 7 5 6 7 10 18 6 5 6 9 13 16 14 12 9 8 13 16 7 6 5 6 19 27 21 23 20 21 25 21 19 13 11 9 14 13 17 15 13 14 14 15 20
6 5 5 9 9 8 7 6 9 6 7 8 7 4 7 4 4 5 6 7 16 5 2 1 4 6 19 12 11 7 7 6 28 40 31 18 29 27 22 22 17 16 17 18 16 19 20 19 17 15 19 12 12 16
5 5 11 7 6 3 6 7 6 11 9 7 5 11 6 5 2 5 4 5 13 10 6 7 10 17 32 21 9 33 29 26 33 35 31 19 13 25 30 28 21 20 14 12 15 16 18 19 23 21 19 14 14 15
5 9 11 13 14 15 11 20 32 13 6 8 7 8 2 4 6 3 5 4 5 7 6 13 13 47 24 18 21 32 24 25 25 23 22 16 16 21 22 23 22 19 13 18 20 17 16 16 15 14 16 12 12 11
12 10 8 21 22 31 16 9 7 8 6 10 16 5 6 3 2 2 5 11 9 9 14 22 31 32 21 19 21 31 27 24 22 27 30 25 17 22 21 20 19 16 16 15 16 18 14 17 16 14 18 20 15 15
12 17 25 32 15 13 10 5 4 6 5 6 5 5 12 7 9 10 5 5 6 20 27 26 47 28 14 19 25 26 21 19 22 29 33 31 28 24 19 19 15 12 17 14 11 15 17 16 16 21 18 18 17 16
11 16 14 26 5 8 11 6 5 14 8 7 7 6 12 16 15 10 11 16 19 22 37 46 42 29 23 32 29 24 20 21 14 15 22 24 25 31 32 26 29 29 25 20 16 20 22 17 19 12 9 7 14 18
19 22 14 21 9 17 9 5 16 12 2 2 1 2 6 8 20 17 18 27 14 10 24 28 32 26 34 29 30 28 31 28 29 31 25 19 20 21 25 20 19 17 21 17 14 16 15 15 19 15 13 15 14 14
11 11 13 8 29 2 10 9 12 7 8 3 3 10 7 7 5 10 17 8 29 28 28 33 37 35 29 26 23 20 18 23 26 24 21 19 16 14 16 22 17 14 14 15 15 17 16 15 13 11 13 13 12 13
19 26 24 14 13 12 11 8 8 8 7 5 5 11 8 7 9 6 12 20 22 18 26 31 30 26 22 19 22 20 16 18 17 18 19 18 19 23 25 22 17 11 16 16 16 13 10 11 10 10 11 12 14 11
Wind_Direction_500mb
308 307 305 304 304 304 303 298 294 288 275 286 298 301 296 274 283 260 213 219 300 256 284 290 251 311 289 260 136 309 348 356 12 38 77 305 335 302 25 271 236 172 158 215 83 77 276 340 37 172 285 317 321 310
306 306 306 308 310 308 304 301 297 289 294 297 299 292 279 278 275 254 197 197 304 286 262 295 284 261 244 239 274 243 189 288 349 72 25 59 343 356 80 280 342 13 161 209 175 224 174 70 278 207 328 316 308 307
305 308 310 310 310 308 307 304 293 267 292 280 275 272 267 266 273 265 255 269 272 300 306 312 11 12 212 228 232 223 193 135 83 43 99 163 317 107 296 268 337 321 328 200 8 306 324 322 197 327 332 319 315 310
302 302 303 305 309 313 310 313 299 295 283 278 267 242 251 267 271 266 266 220 241 274 279 293 299 345 289 224 215 226 167 129 47 28 87 109 209 187 243 249 200 232 313 219 267 275 329 272 296 323 318 316 314 316
301 302 307 316 321 316 309 291 280 269 278 255 215 204 298 290 285 267 275 235 228 253 268 290 309 334 200 197 207 201 226 224 247 2 71 232 247 7 325 319 251 200 193 166 229 223 282 284 318 317 309 311 313 311
288 281 277 277 282 283 279 267 276 269 232 208 219 267 280 286 273 286 156 191 195 250 312 313 307 294 273 195 186 201 190 174 192 196 220 250 251 189 254 261 264 227 232 238 252 292 286 296 306 313 304 311 310 304
280 281 292 295 290 290 259 171 158 205 237 267 269 272 276 272 256 232 200 160 181 198 255 306 307 299 178 173 180 185 197 189 207 209 221 242 255 187 233 243 263 263 254 256 286 294 284 292 295 321 315 314 319 322
273 274 274 274 261 234 216 280 283 267 268 269 273 274 270 262 269 258 204 166 191 272 257 245 273 314 164 154 148 191 184 219 235 237 231 218 211 204 252 247 262 272 269 268 282 271 278 307 315 322 318 329 338 334
170 214 234 257 259 269 273 275 264 262 265 266 253 221 110 140 126 127 140 185 212 246 269 244 217 264 224 184 131 159 189 180 218 213 242 185 203 228 235 260 276 284 274 285 299 290 297 305 325 313 326 343 340 351
216 241 253 258 260 266 274 271 255 245 211 149 110 55 173 219 211 178 175 174 191 220 235 239 245 252 228 210 146 184 181 213 207 223 199 224 250 257 266 278 288 290 300 313 317 310 314 318 309 322 337 338 353 354
266 264 261 258 261 261 257 256 232 172 145 135 194 238 116 195 197 211 205 199 187 244 222 231 216 196 296 143 143 216 194 212 238 212 182 224 252 265 27 311 320 309 309 325 327 307 315 324 332 340 347 341 348 348
264 254 251 254 260 254 239 224 199 173 165 187 265 291 248 215 208 223 210 201 187 231 206 200 202 191 181 188 178 172 223 65 251 150 222 253 245 9 313 328 332 332 352 345 346 346 346 350 359 347 347 347 346 353
256 250 253 260 260 252 231 228 205 198 206 202 243 242 207 215 182 207 208 211 202 214 200 156 102 150 135 108 82 74 174 233 150 233 232 230 350 291 301 336 354 5 337 333 350 1 357 18 22 13 2 358 359 2
273 280 280 277 266 249 239 222 205 202 193 221 224 246 216 214 226 200 216 200 220 210 166 143 112 109 104 92 169 211 241 5 269 256 240 231 242 284 278 326 24 28 36 31 6 346 4 38 26 19 15 8 24 29
309 336 322 287 215 275 256 210 196 193 210 248 240 243 230 237 259 271 261 272 252 234 179 135 88 121 140 210 207 248 262 236 222 231 224 202 237 301 317 7 48 23 43 58 351 3 19 37 12 17 20 32 56 54
150 109 32 79 120 193 226 187 182 186 237 248 238 276 285 294 308 324 307 269 248 203 138 97 92 143 162 217 214 215 229 231 253 223 174 318 284 13 33 112 178 39 35 46 352 1 16 27 7 11 41 57 68 55
150 157 177 188 176 203 174 175 189 210 236 247 243 267 271 284 286 296 299 281 212 181 135 126 165 197 140 219 228 188 211 230 259 242 208 251 210 114 142 153 158 117 21 5 42 1 15 39 42 59 82 81 59 49
200 216 301 231 257 234 233 214 252 231 236 238 250 265 274 281 293 293 295 256 219 184 155 173 142 180 218 238 250 244 330 328 295 276 298 212 187 192 245 146 154 76 14 62 79 58 65 46 49 74 84 73 65 64
216 156 106 316 267 224 210 219 219 260 245 251 259 268 271 285 286 288 290 221 237 195 150 145 178 215 225 219 233 271 315 275 294 249 178 170 195 238 147 122 91 15 69 109 62 70 71 56 47 74 144 67 58 80
194 210 263 297 256 225 265 250 209 254 268 256 287 256 261 273 289 285 287 227 214 156 164 194 213 226 233 277 288 313 226 282 291 183 160 169 173 165 159 150 53 112 106 83 74 75 96 79 63 53 80 61 63 74
134 333 236 218 192 232 267 274 248 235 273 267 280 307 287 263 257 254 254 256 217 210 218 227 240 221 258 307 292 264 299 294 242 161 177 160 160 173 153 64 118 116 110 85 79 88 97 92 89 84 86 85 84 71
7 28 110 228 251 244 260 241 244 279 272 266 278 270 235 256 259 236 222 220 230 220 222 246 234 257 284 280 208 262 239 271 210 211 184 152 171 155 110 138 137 118 103 85 84 78 104 82 102 85 83 92 88 86
60 16 250 231 244 245 262 258 248 253 309 305 319 261 215 231 216 177 184 204 215 231 230 251 280 255 238 276 271 212 231 222 207 241 174 163 156 113 108 144 138 108 80 83 76 83 110 117 116 106 97 94 94 97
304 263 265 251 225 268 282 238 225 220 237 226 208 247 234 216 154 121 153 198 200 242 257 269 260 233 213 184 217 276 215 200 135 164 165 159 143 128 133 133 122 92 78 75 95 101 98 117 123 129 123 109 93 111
291 250 257 269 247 262 269 277 319 295 260 227 204 296 312 335 108 156 158 192 200 238 205 76 164 168 160 196 164 236 169 163 150 164 165 153 133 132 137 152 138 86 84 97 104 103 105 98 111 126 115 114 111 101
257 237 206 258 235 182 284 296 280 295 307 337 344 331 324 350 33 65 6 132 162 161 177 133 142 148 153 154 47 98 112 136 152 160 165 159 137 145 140 142 128 112 100 100 115 110 130 105 96 99 104 87 85 81
276 262 241 257 262 250 274 255 287 289 353 10 357 327 280 64 50 26 113 110 148 155 132 137 118 150 130 107 93 106 117 125 131 143 149 159 141 144 150 154 137 121 109 129 105 111 112 126 111 95 86 94 99 94
248 273 242 276 286 279 250 289 340 8 359 355 324 332 28 102 248 22 316 303 295 220 189 168 168 179 168 132 134 118 115 109 122 118 117 139 150 157 150 140 145 151 121 123 136 117 114 109 113 109 86 73 100 85
250 259 271 280 302 34 331 307 317 301 297 337 316 315 351 57 35 351 352 112 145 156 158 156 151 163 136 130 153 143 158 146 129 127 123 127 128 131 140 156 163 145 128 130 137 141 123 116 124 110 74 59 92 98
258 304 287 304 182 199 240 220 296 295 292 266 297 351 67 57 13 14 131 87 131 140 142 142 160 137 128 134 136 134 146 163 173 149 139 147 142 137 130 116 118 122 117 109 106 117 127 116 123 105 97 63 74 62
288 297 303 308 296 354 135 64 110 109 54 242 21 319 144 77 35 65 74 76 110 76 113 139 159 161 149 159 150 147 132 129 124 124 129 141 164 176 165 126 110 111 127 125 108 125 130 130 106 96 85 74 66 62
263 271 285 305 310 236 219 239 192 201 198 213 149 145 140 129 76 42 59 101 73 94 96 112 129 143 154 145 148 143 143 137 139 143 144 144 138 135 153 173 158 150 153 131 134 130 124 121 121 108 105 118 90 69
278 276 280 297 321 339 336 326 176 135 139 127 119 170 152 75 69 83 59 98 77 96 114 117 122 124 125 136 150 159 170 185 184 181 174 154 131 146 150 147 155 163 158 157 153 152 129 133 139 137 102 107 87 84
Wind_Speed_850mb
85 73 61 54 49 46 41 37 32 25 19 19 25 26 23 17 14 11 9 11 8 11 40 20 5 14 13 6 6 8 10 8 8 8 4 4 1 4 6 5 5 8 7 6 3 3 13 10 5 2 8 24 31 39
63 51 44 39 36 32 28 24 17 9 12 19 21 20 17 15 10 10 8 14 9 14 24 43 41 41 38 26 22 5 3 4 4 6 4 4 5 6 2 4 10 2 6 5 11 10 10 2 10 9 26 36 36 41
43 35 30 26 26 24 21 18 12 8 16 20 19 14 12 10 10 12 14 9 12 17 37 12 13 15 14 25 19 17 4 2 6 7 3 1 1 5 1 6 5 9 5 2 5 4 1 25 11 30 35 35 42 48
31 30 28 24 22 20 15 10 11 15 15 14 10 8 7 10 12 15 13 9 11 8 8 12 10 13 9 14 22 21 16 4 6 8 6 2 2 2 5 8 6 15 6 5 8 14 25 8 21 45 48 47 49 53
25 21 17 17 17 17 13 13 12 10 12 9 7 6 5 11 12 12 12 9 18 11 7 23 36 9 25 20 23 21 18 17 3 3 4 4 6 3 6 6 7 12 11 8 9 11 15 34 47 48 49 57 63 61
22 19 17 18 18 13 10 8 8 6 4 6 5 9 13 16 10 5 3 10 19 16 7 6 13 14 8 35 25 24 16 4 11 8 6 7 7 4 3 6 19 27 24 22 13 21 29 43 51 53 48 57 59 58
16 12 9 8 6 9 7 5 6 4 6 6 12 15 21 18 18 14 8 14 20 9 6 12 14 6 14 38 29 27 23 8 10 6 7 6 7 12 4 7 20 17 30 27 27 31 41 41 44 47 40 45 57 47
6 5 5 5 4 6 4 0 3 8 11 17 20 19 15 12 11 13 20 14 14 5 6 3 9 8 22 14 11 19 14 10 8 6 6 9 7 10 9 35 43 39 34 34 42 27 36 39 35 40 43 49 42 48
4 3 4 6 7 8 10 16 16 15 14 10 5 2 4 6 3 2 8 11 21 10 5 5 4 3 3 11 10 10 13 4 7 8 8 9 6 11 18 33 34 32 27 40 50 43 37 39 30 37 45 37 39 42
5 8 12 15 17 18 18 13 9 8 6 12 9 2 2 2 3 4 6 7 9 9 10 10 9 4 6 3 11 13 9 5 4 9 8 6 7 49 49 45 46 43 32 30 28 30 32 21 30 36 30 29 37 38
15 17 17 16 15 13 11 9 8 10 15 8 3 5 1 6 6 6 6 10 10 7 13 14 30 7 4 4 4 12 5 5 4 6 8 5 6 7 10 18 17 15 19 19 15 14 18 20 28 28 28 25 31 29
11 12 13 13 11 10 9 7 12 23 13 8 6 10 5 7 7 6 6 6 8 8 12 11 18 29 10 7 5 4 5 0 8 21 5 5 4 5 10 14 19 14 9 12 13 13 21 28 26 24 26 26 28 27
8 9 9 10 9 9 10 8 13 25 14 10 5 5 8 10 7 10 10 7 4 10 13 18 8 11 6 4 4 4 1 8 5 4 6 5 4 9 10 12 13 12 9 8 9 16 20 21 25 26 25 23 22 22
4 6 9 9 8 7 10 11 12 18 10 7 8 8 8 8 9 10 9 7 19 5 18 30 15 7 6 3 4 4 8 4 3 5 6 4 13 13 7 7 5 12 11 6 9 14 16 19 29 33 32 23 19 21
2 6 7 5 5 3 7 14 13 17 7 7 8 8 10 24 20 19 29 30 29 17 20 16 14 8 4 2 5 4 4 6 8 7 5 6 4 6 6 5 4 7 7 4 7 15 14 21 26 30 30 26 23 27
0 7 8 4 3 3 4 13 12 11 7 8 12 9 22 12 12 17 16 24 28 15 20 14 5 2 4 4 6 9 5 8 7 6 6 1 2 3 4 2 2 2 8 7 5 12 19 26 20 26 19 28 35 37
7 8 5 5 5 2 6 13 10 11 9 9 13 20 39 47 32 30 31 11 16 28 5 8 9 10 6 5 6 8 8 6 10 5 4 3 2 3 5 5 5 3 11 10 6 9 10 14 19 27 34 29 29 34
11 3 12 7 8 12 13 14 7 10 15 27 17 37 29 29 37 40 37 19 16 14 19 9 8 5 5 6 4 4 9 31 21 12 6 6 8 6 3 1 6 5 10 6 11 12 15 14 15 16 26 30 28 26
11 4 1 4 6 8 7 9 13 9 22 28 33 40 36 41 43 38 30 14 10 12 19 14 5 6 7 11 8 9 12 27 26 12 7 6 9 7 4 6 4 10 3 9 11 15 14 15 19 13 10 16 18 14
6 8 6 8 7 5 6 9 16 12 11 10 24 34 25 26 30 28 20 13 23 14 7 6 9 19 12 10 13 23 13 24 23 11 13 12 9 12 13 5 3 8 18 17 17 14 14 21 23 25 15 14 18 20
1 3 5 4 3 11 10 8 12 14 16 12 23 23 19 19 24 35 40 31 25 9 9 18 18 13 14 17 21 21 30 12 8 9 20 18 16 9 9 6 21 15 15 14 13 17 17 13 17 24 27 26 21 20
8 3 3 3 5 7 13 15 13 13 16 26 36 21 12 8 15 21 30 27 19 28 20 19 17 16 19 14 19 21 13 9 5 2 11 18 19 19 9 16 19 18 19 17 15 12 15 16 17 23 23 24 23 26
8 4 4 7 8 9 16 12 10 6 5 14 20 6 7 9 10 13 11 13 10 14 15 14 13 9 8 4 12 19 10 7 5 8 24 21 20 12 13 22 18 19 17 13 10 12 17 19 18 16 17 18 17 18
3 4 5 5 12 10 11 9 13 10 9 7 5 6 7 10 18 6 5 6 9 13 16 14 12 9 8 13 16 7 6 5 6 19 27 21 23 20 21 25 21 19 13 11 9 14 13 17 15 13 14 14 15 20
6 5 5 9 9 8 7 6 9 6 7 8 7 4 7 4 4 5 6 7 16 5 2 1 4 6 19 12 11 7 7 6 28 40 31 18 29 27 22 22 17 16 17 18 16 19 20 19 17 15 19 12 12 16
5 5 11 7 6 3 6 7 6 11 9 7 5 11 6 5 2 5 4 5 13 10 6 7 10 17 32 21 9 33 29 26 33 35 31 19 13 25 30 28 21 20 14 12 15 16 18 19 23 21 19 14 14 15
5 9 11 13 14 15 11 20 32 13 6 8 7 8 2 4 6 3 5 4 5 7 6 13 13 47 24 18 21 32 24 25 25 23 22 16 16 21 22 23 22 19 13 18 20 17 16 16 15 14 16 12 12 11
12 10 8 21 22 31 16 9 7 8 6 10 16 5 6 3 2 2 5 11 9 9 14 22 31 32 21 19 21 31 27 24 22 27 30 25 17 22 21 20 19 16 16 15 16 18 14 17 16 14 18 20 15 15
12 17 25 32 15 13 10 5 4 6 5 6 5 5 12 7 9 10 5 5 6 20 27 26 47 28 14 19 25 26 21 19 22 29 33 31 28 24 19 19 15 12 17 14 11 15 17 16 16 21 18 18 17 16
11 16 14 26 5 8 11 6 5 14 8 7 7 6 12 16 15 10 11 16 19 22 37 46 42 29 23 32 29 24 20 21 14 15 22 24 25 31 32 26 29 29 25 20 16 20 22 17 19 12 9 7 14 18
19 22 14 21 9 17 9 5 16 12 2 2 1 2 6 8 20 17 18 27 14 10 24 28 32 26 34 29 30 28 31 28 29 31 25 19 20 21 25 20 19 17 21 17 14 16 15 15 19 15 13 15 14 14
11 11 13 8 29 2 10 9 12 7 8 3 3 10 7 7 5 10 17 8 29 28 28 33 37 35 29 26 23 20 18 23 26 24 21 19 16 14 16 22 17 14 14 15 15 17 16 15 13 11 13 13 12 13
19 26 24 14 13 12 11 8 8 8 7 5 5 11 8 7 9 6 12 20 22 18 26 31 30 26 22 19 22 20 16 18 17 18 19 18 19 23 25 22 17 11 16 16 16 13 10 11 10 10 11 12 14 11
Wind_Direction_850mb
308 307 305 304 304 304 303 298 294 288 275 286 298 301 296 274 283 260 213 219 300 256 284 290 251 311 289 260 136 309 348 356 12 38 77 305 335 302 25 271 236 172 158 215 83 77 276 340 37 172 285 317 321 310
306 306 306 308 310 308 304 301 297 289 294 297 299 292 279 278 275 254 197 197 304 286 262 295 284 261 244 239 274 243 189 288 349 72 25 59 343 356 80 280 342 13 161 209 175 224 174 70 278 207 328 316 308 307
305 308 310 310 310 308 307 304 293 267 292 280 275 272 267 266 273 265 255 269 272 300 306 312 11 12 212 228 232 223 193 135 83 43 99 163 317 107 296 268 337 321 328 200 8 306 324 322 197 327 332 319 315 310
302 302 303 305 309 313 310 313 299 295 283 278 267 242 251 267 271 266 266 220 241 274 279 293 299 345 289 224 215 226 167 129 47 28 87 109 209 187 243 249 200 232 313 219 267 275 329 272 296 323 318 316 314 316
301 302 307 316 321 316 309 291 280 269 278 255 215 204 298 290 285 267 275 235 228 253 268 290 309 334 200 197 207 201 226 224 247 2 71 232 247 7 325 319 251 200 193 166 229 223 282 284 318 317 309 311 313 311
288 281 277 277 282 283 279 267 276 269 232 208 219 267 280 286 273 286 156 191 195 250 312 313 307 294 273 195 186 201 190 174 192 196 220 250 251 189 254 261 264 227 232 238 252 292 286 296 306 313 304 311 310 304
280 281 292 295 290 290 259 171 158 205 237 267 269 272 276 272 256 232 200 160 181 198 255 306 307 299 178 173 180 185 197 189 207 209 221 242 255 187 233 243 263 263 254 256 286 294 284 292 295 321 315 314 319 322
273 274 274 274 261 234 216 280 283 267 268 269 273 274 270 262 269 258 204 166 191 272 257 245 273 314 164 154 148 191 184 219 235 237 231 218 211 204 252 247 262 272 269 268 282 271 278 307 315 322 318 329 338 334
170 214 234 257 259 269 273 275 264 262 265 266 253 221 110 140 126 127 140 185 212 246 269 244 217 264 224 184 131 159 189 180 218 213 242 185 203 228 235 260 276 284 274 285 299 290 297 305 325 313 326 343 340 351
216 241 253 258 260 266 274 271 255 245 211 149 110 55 173 219 211 178 175 174 191 220 235 239 245 252 228 210 146 184 181 213 207 223 199 224 250 257 266 278 288 290 300 313 317 310 314 318 309 322 337 338 353 354
266 264 261 258 261 261 257 256 232 172 145 135 194 238 116 195 197 211 205 199 187 244 222 231 216 196 296 143 143 216 194 212 238 212 182 224 252 265 27 311 320 309 309 325 327 307 315 324 332 340 347 341 348 348
264 254 251 254 260 254 239 224 199 173 165 187 265 291 248 215 208 223 210 201 187 231 206 200 202 191 181 188 178 172 223 65 251 150 222 253 245 9 313 328 332 332 352 345 346 346 346 350 359 347 347 347 346 353
256 250 253 260 260 252 231 228 205 198 206 202 243 242 207 215 182 207 208 211 202 214 200 156 102 150 135 108 82 74 174 233 150 233 232 230 350 291 301 336 354 5 337 333 350 1 357 18 22 13 2 358 359 2
273 280 280 277 266 249 239 222 205 202 193 221 224 246 216 214 226 200 216 200 220 210 166 143 112 109 104 92 169 211 241 5 269 256 240 231 242 284 278 326 24 28 36 31 6 346 4 38 26 19 15 8 24 29
309 336 322 287 215 275 256 210 196 193 210 248 240 243 230 237 259 271 261 272 252 234 179 135 88 121 140 210 207 248 262 236 222 231 224 202 237 301 317 7 48 23 43 58 351 3 19 37 12 17 20 32 56 54
150 109 32 79 120 193 226 187 182 186 237 248 238 276 285 294 308 324 307 269 248 203 138 97 92 143 162 217 214 215 229 231 253 223 174 318 284 13 33 112 178 39 35 46 352 1 16 27 7 11 41 57 68 55
150 157 177 188 176 203 174 175 189 210 236 247 243 267 271 284 286 296 299 281 212 181 135 126 165 197 140 219 228 188 211 230 259 242 208 251 210 114 142 153 158 117 21 5 42 1 15 39 42 59 82 81 59 49
200 216 301 231 257 234 233 214 252 231 236 238 250 265 274 281 293 293 295 256 219 184 155 173 142 180 218 238 250 244 330 328 295 276 298 212 187 192 245 146 154 76 14 62 79 58 65 46 49 74 84 73 65 64
216 156 106 316 267 224 210 219 219 260 245 251 259 268 271 285 286 288 290 221 237 195 150 145 178 215 225 219 233 271 315 275 294 249 178 170 195 238 147 122 91 15 69 109 62 70 71 56 47 74 144 67 58 80
194 210 263 297 256 225 265 250 209 254 268 256 287 256 261 273 289 285 287 227 214 156 164 194 213 226 233 277 288 313 226 282 291 183 160 169 173 165 159 150 53 112 106 83 74 75 96 79 63 53 80 61 63 74
134 333 236 218 192 232 267 274 248 235 273 267 280 307 287 263 257 254 254 256 217 210 218 227 240 221 258 307 292 264 299 294 242 161 177 160 160 173 153 64 118 116 110 85 79 88 97 92 89 84 86 85 84 71
7 28 110 228 251 244 260 241 244 279 272 266 278 270 235 256 259 236 222 220 230 220 222 246 234 257 284 280 208 262 239 271 210 211 184 152 171 155 110 138 137 118 103 85 84 78 104 82 102 85 83 92 88 86
60 16 250 231 244 245 262 258 248 253 309 305 319 261 215 231 216 177 184 204 215 231 230 251 280 255 238 276 271 212 231 222 207 241 174 163 156 113 108 144 138 108 80 83 76 83 110 117 116 106 97 94 94 97
304 263 265 251 225 268 282 238 225 220 237 226 208 247 234 216 154 121 153 198 200 242 257 269 260 233 213 184 217 276 215 200 135 164 165 159 143 128 133 133 122 92 78 75 95 101 98 117 123 129 123 109 93 111
291 250 257 269 247 262 269 277 319 295 260 227 204 296 312 335 108 156 158 192 200 238 205 76 164 168 160 196 164 236 169 163 150 164 165 153 133 132 137 152 138 86 84 97 104 103 105 98 111 126 115 114 111 101
257 237 206 258 235 182 284 296 280 295 307 337 344 331 324 350 33 65 6 132 162 161 177 133 142 148 153 154 47 98 112 136 152 160 165 159 137 145 140 142 128 112 100 100 115 110 130 105 96 99 104 87 85 81
276 262 241 257 262 250 274 255 287 289 353 10 357 327 280 64 50 26 113 110 148 155 132 137 118 150 130 107 93 106 117 125 131 143 149 159 141 144 150 154 137 121 109 129 105 111 112 126 111 95 86 94 99 94
248 273 242 276 286 279 250 289 340 8 359 355 324 332 28 102 248 22 316 303 295 220 189 168 168 179 168 132 134 118 115 109 122 118 117 139 150 157 150 140 145 151 121 123 136 117 114 109 113 109 86 73 100 85
250 259 271 280 302 34 331 307 317 301 297 337 316 315 351 57 35 351 352 112 145 156 158 156 151 163 136 130 153 143 158 146 129 127 123 127 128 131 140 156 163 145 128 130 137 141 123 116 124 110 74 59 92 98
258 304 287 304 182 199 240 220 296 295 292 266 297 351 67 57 13 14 131 87 131 140 142 142 160 137 128 134 136 134 146 163 173 149 139 147 142 137 130 116 118 122 117 109 106 117 127 116 123 105 97 63 74 62
288 297 303 308 296 354 135 64 110 109 54 242 21 319 144 77 35 65 74 76 110 76 113 139 159 161 149 159 150 147 132 129 124 124 129 141 164 176 165 126 110 111 127 125 108 125 130 130 106 96 85 74 66 62
263 271 285 305 310 236 219 239 192 201 198 213 149 145 140 129 76 42 59 101 73 94 96 112 129 143 154 145 148 143 143 137 139 143 144 144 138 135 153 173 158 150 153 131 134 130 124 121 121 108 105 118 90 69
278 276 280 297 321 339 336 326 176 135 139 127 119 170 152 75 69 83 59 98 77 96 114 117 122 124 125 136 150 159 170 185 184 181 174 154 131 146 150 147 155 163 158 157 153 152 129 133 139 137 102 107 87 84